Regional Weather Roundup
Issued by NWS Wakefield, VA

Home | Current Version | Previous Version | Graphics & Text | Print | Product List | Glossary On
Versions: 1 2 3 4 5 6 7 8 9 10 11 12 13 14 15 16 17 18 19 20 21 22 23 24 25
000
ASUS41 KAKQ 180215
RWRAKQ

REGIONAL WEATHER ROUNDUP
NATIONAL WEATHER SERVICE WAKEFIELD VA
900 PM EST SAT FEB 17 2018

Note: "fair" indicates few or no clouds below 12,000 feet with no
significant weather and/or obstructions to visibility. * = Denotes
station may not report precipitation (e.g., rain,snow,etc.),
thunder or fog.

VAZ042-051-052>054-056-180300-
NORTHERN VIRGINIA

CITY           SKY/WX    TMP DP  RH WIND       PRES   REMARKS
WASH NATIONAL  CLOUDY    35  33  92 S6        30.10R
DULLES         CLOUDY    33  33 100 CALM      30.10R
FORT BELVOIR   CLOUDY    35  33  94 CALM      30.10R
QUANTICO       CLOUDY    37  36  96 S6        30.12R
FREDERICKSBRG* CLOUDY    37  37 100 CALM      30.10S
STAFFORD*      CLOUDY    36  36 100 CALM      30.14R
WARRENTON      CLOUDY    34  32  92 CALM      30.09R FOG
CULPEPER*      CLOUDY    34  32  94 W3        30.11R
MANASSAS*      CLOUDY    33  32  96 W5        30.11R FOG
LEESBURG*      CLOUDY    32  32 100 S3        30.09R FOG
WINCHESTER     CLOUDY    32  30  93 SE3       30.06F
FRONT ROYAL*   CLOUDY    32  32 100 CALM      30.05S
LURAY*         MOCLDY    34  32  93 SW7       30.04S
$$

VAZ048-049-060>072-079>083-180300-
CENTRAL AND SOUTH CENTRAL VIRGINIA

CITY           SKY/WX    TMP DP  RH WIND       PRES   REMARKS
RICHMOND       LGT RAIN  38  37  97 S5        30.09F FOG
CHESTERFIELD*  LGT RAIN  38  37  97 SE6       30.10F FOG
PETERSBURG*    LGT RAIN  37  37 100 NW3       30.12R
HANOVER        LGT RAIN  38  37  97 SE5       30.08F FOG
TAPPAHANNOCK*  RAIN      37  36  98 SE3       30.10F
QUINTON*       CLOUDY    37  37 100 CALM      30.11S
CHARLOTTSVILLE LGT RAIN  34  33  96 CALM      30.09R FOG
GORDONSVILLE*  CLOUDY    33  33 100 CALM      30.09R
ORANGE*        CLOUDY    32  32 100 CALM      30.09R
LOUISA*        CLOUDY    33  33  98 NW6       30.14R
BUMPASS*       CLOUDY    34  33  95 S3        30.05F
FARMVILLE*     CLOUDY   N/A N/A N/A S7        30.06F
CREWE*         CLOUDY    36  36 100 S5        30.08F
FORT PICKETT*  CLOUDY    37  37 100 NW6       30.12R
CHASE CITY*    CLOUDY    37  37 100 NW5       30.13R
CLARKSVILLE*   CLOUDY    37  37 100 N7        30.13R
SOUTH HILL*    CLOUDY    38  38 100 N8        30.17R
LAWRENCEVILLE* CLOUDY    38  38  97 CALM      30.11R
EMPORIA*       CLOUDY    39  39 100 CALM      30.12S FOG
$$

VAZ088>098-180300-
SOUTHEAST VIRGINIA

CITY           SKY/WX    TMP DP  RH WIND       PRES   REMARKS
NORFOLK        CLOUDY    41  39  93 N9        30.07F
VIRGINIA BEACH CLOUDY    40  37  89 NW12      30.08R
NORFOLK NAVAL  LGT RAIN  40  37  89 N5        30.09F
WEST POINT*    CLOUDY    36  35  96 NW3       30.13F
SALUDA*        CLOUDY    36  36 100 N6        30.10F
NEWPORT NEWS   CLOUDY    38  37  97 N3        30.09F
LANGLEY AFB    CLOUDY    41  37  87 N5        30.13S
FORT EUSTIS    CLOUDY    38  36  91 N5        30.07F
WILLIAMSBURG*  CLOUDY    39  36  87 CALM      30.11F
HR EXEC AP*    LGT RAIN  40  39  97 CALM      30.09F
FRANKLIN*      CLOUDY    40  39  97 CALM      30.10F FOG
US460-WAKEFLD  CLOUDY    39  38  96 N3        30.10F FOG
$$

VAZ020-022-025-037-045-180300-
WEST CENTRAL AND SOUTHWEST VIRGINIA

CITY           SKY/WX    TMP DP  RH WIND       PRES   REMARKS
STAUNTON*      MOCLDY    32  30  94 S6        30.07R
WAYNESBORO*    CLOUDY    32  32 100 CALM      30.05S
HOT SPRINGS VA SNOW      30  30 100 CALM      29.96S VSB<1/4
LYNCHBURG      LGT RAIN  34  33  96 CALM      30.08F
DANVILLE       MIX PCPN  37  37 100 CALM      30.12F
SOUTH BOSTON*  CLOUDY    37  36  95 CALM      30.14R
MARTINSVILLE   LGT RAIN  37  36  96 CALM      30.10F
ROANOKE        LGT RAIN  35  33  92 SE3       30.10S
BLACKSBURG     CLOUDY    34  34  99 CALM      30.08S
DUBLIN*        CLOUDY    35  35  99 CALM      30.07R
MARION*        CLOUDY    40  37  90 CALM      30.08R
HILLSVILLE*    CLOUDY    38  37  97 SW6       30.04R
RICHLANDS*     CLOUDY    43  42  96 SW12G20   30.07R
WISE*          CLOUDY    45  45 100 W10       30.10R
ABINGDON*      CLOUDY    46  46 100 W6        30.10R
$$

MDZ021>025-VAZ099-100-180300-
SOUTHERN MARYLAND AND THE DELMARVA PENINSULA

CITY           SKY/WX    TMP DP  RH WIND       PRES   REMARKS
PATUXENT RIVER MIX PCPN  35  35 100 CALM      30.09F
BAY BRIDGE APT DRIZZLE   34  34 100 S9        30.06F FOG
LEONARDTOWN    CLOUDY    34  34 100 CALM      30.09F
DOVER          LGT RAIN  33  33  98 E5        30.07F
GEORGETOWN     LGT RAIN  37  32  82 NE7       30.07F
EASTON         DRIZZLE   34  32  93 CALM      30.13F
CAMBRIDGE        N/A     36  34  93 CALM      30.08F
SALISBURY      LGT RAIN  36  36 100 N5        30.08F
OCEAN CITY     RAIN      38  37  97 N13       30.08F
WALLOPS ISLAND LGT RAIN  38  37  97 NW10      30.08F
ACCOMACK*      LGT RAIN  39  38  98 NW7       30.09R
$$

NCZ012>017-030>032-180300-
NORTH CENTRAL AND EASTERN NORTH CAROLINA

CITY           SKY/WX    TMP DP  RH WIND       PRES   REMARKS
ROANOKE RAPIDS CLOUDY    43  43 100 NW6       30.11S FOG
RALEIGH        DRIZZLE   43  42  97 NE6       30.10F FOG
ELIZABETH CITY CLOUDY    44  44 100 N13       30.08F
AHOSKIE*       CLOUDY    42  42 100 CALM      30.09F FOG
EDENTON*       CLOUDY    46  45  96 N6        30.09S FOG
CURRITUCK*     CLOUDY    42  41  97 NW6       30.09F
KILL DEVIL HLS CLOUDY   N/A N/A N/A NW7       30.06F FOG
MANTEO         CLOUDY    46  46 100 NW10G16   30.08S FOG
CAPE HATTERAS  MOCLDY    62  62 100 W6        30.05S FOG
TARBORO*       NOT AVBL
GOLDSBORO      CLOUDY    48  44  87 CALM      30.07S
WASHINGTON     CLOUDY    46  45  97 CALM      30.08F FOG
GREENVILLE     CLOUDY    46  46 100 CALM      30.10R FOG
NEW BERN       CLOUDY    49  46  90 CALM      30.08F
WILMINGTON     FAIR      52  50  93 N3        30.10R
$$

VAZ048-180300-
ELSEWHERE

CITY           SKY/WX    TMP DP  RH WIND       PRES   REMARKS
HARRISBURG PA  CLOUDY    32  29  88 SE5       30.09S
BALTIMORE      CLOUDY    33  33 100 SW3       30.07F FOG
ANNAPOLIS      CLOUDY    37  36  96 S6        30.07F
ANDREWS AFB    CLOUDY    34  32  93 S6        30.07F
PHILADELPHIA   LGT SNOW  32  31  96 E7        30.08F FOG
HENDERSON NC   CLOUDY    37  37  97 N5        30.10S FOG
GREENSBORO     LGT RAIN  38  38 100 N6        30.11R
ROCKY MOUNT    CLOUDY    44  44 100 N3        30.10F FOG
$$

VAZ100-180300-
MARINE

STATION/POSITION TIME  TEMP    WIND        PRES    WAVE   SWELL
                       AIR SEA DIR/SP/G            HT/PER HT/PER
                 (UTC) (F)     (DEG/KT/KT) (MB)    (FT/S) (FT/S)
BRANDYWINE LGT   0142   36      80/  9/  9 1019.3F
CAPE MAY NJ      0148   35 40   30/  2/  4 1018.4F
LEWES DE         0142   37 42   10/  8/ 10 1019.3F
15NM E FENWICK I 0150   39 42  350/ 17/ 21 1017.5F   3/ 4   2/10
OCEAN-CITY-INLET 0142   38 40   30/ 13/ 19 1018.4F
WACHAPREAGUE VA  0142   38 47  290/  3/  8 1018.5F
THOMAS POINT MD  0200   35 38  160/ 10/ 12   N/A
GOOSES REEF MD   0200   35 38  160/  6/  8 1020.0    1
COVE POINT MD    0142   35     150/  3/  3 1019.6F
SOLOMONS ISLAND  0142   35 40  110/  2/  3 1018.7F
BISHOPS HEAD MD  0142   35 43  350/  2/  5 1019.4F
POTOMAC MD       0200   35 40  120/  4/  4 1018.3    0
CAMBRIDGE MD     0142   35 43              1019.9F
LEWISETTA VA     0142   36 44   50/  3/  5 1019.4F
RAPPAHANNOCK LGT 0142          330/ 16/ 19 1019.9R
STINGRAY PT      0200   37 42   40/ 10/ 12 1019.9    1/ 3
YORK RVR RNG VA  0142   39      20/ 11/ 12 1019.5F
YORKTOWN VA      0142   38 44  340/  6/  8 1019.0F
DOMINION TERM VA 0142   39      50/  2/  4 1019.2F
KIPTOPEKE VA     0142      42  340/ 16/ 18   N/A
CAPE HENRY VA    0142   39     330/ 13/ 15   N/A
S CRANEY ISL VA  0142   40     360/  5/  6 1018.9F
CAPE HENRY BUOY  0200      43                N/A     3/ 6
1ST LANDING BUOY 0200   38 42  360/ 14/ 16 1018.6    2/ 3
CAPE CHARLES BUO 0151      43                N/A     3/10
64NM E OF VA BCH 0150   48 51  280/ 14/ 17 1017.1R   4/ 7   2/ 7
DUCK PIER NC     0142   45 44  320/ 11/ 14 1017.7F
44100 DUCK FRF   0145      44                N/A     4/ 6
44056 DUCK FRF   0200      45                N/A     4/ 6
OREGON INLET NC  0142   49 48  300/  8/ 10 1017.8F
HATTERAS NC      0142   62 58  200/  3/  5 1017.3F
DIAMOND SHLS NC  0150   72 69  190/ 23/ 29 1017.8S   6/ 4   3/ 9
CAPE LOOKOUT NC  0200          150/  2/  3 1018.3F
$$




USA.gov is the U.S. government's official web portal to all federal, state and local government web resources and services.